Time,TemperatureF,DewpointF,PressureIn,WindDirection,WindDirectionDegrees,WindSpeedMPH,WindSpeedGustMPH,Humidity,HourlyPrecipIn,Conditions,Clouds,dailyrainin,SoftwareType,DateUTC
2013-12-27 00:00:00,32.7,26.3,30.21,SSW,194,3.0,6.0,77,0.00,,CLR,0.00,VWS V14.01,2013-12-27 06:00:00,
2013-12-27 00:04:00,33.1,26.7,30.21,South,180,4.0,4.0,77,0.00,,CLR,0.00,VWS V14.01,2013-12-27 06:04:00,
2013-12-27 00:09:00,33.4,26.7,30.21,SSW,198,1.0,5.0,76,0.00,,CLR,0.00,VWS V14.01,2013-12-27 06:09:00,
2013-12-27 00:14:00,33.6,26.9,30.21,South,190,2.0,5.0,76,0.00,,CLR,0.00,VWS V14.01,2013-12-27 06:14:00,
2013-12-27 00:19:00,33.7,26.6,30.21,South,190,1.0,5.0,75,0.00,,CLR,0.00,VWS V14.01,2013-12-27 06:19:00,
2013-12-27 00:24:00,33.7,26.6,30.21,SSW,192,1.0,5.0,75,0.00,,CLR,0.00,VWS V14.01,2013-12-27 06:24:00,
2013-12-27 00:30:00,33.6,26.5,30.21,SSW,192,1.0,3.0,75,0.00,,CLR,0.00,VWS V14.01,2013-12-27 06:30:00,
2013-12-27 00:35:00,33.4,26.7,30.22,SSW,193,1.0,3.0,76,0.00,,CLR,0.00,VWS V14.01,2013-12-27 06:35:00,
2013-12-27 00:40:00,33.2,26.8,30.22,SSW,196,2.0,3.0,77,0.00,,CLR,0.00,VWS V14.01,2013-12-27 06:40:00,
2013-12-27 00:45:00,33.2,26.8,30.22,SSW,196,1.0,4.0,77,0.00,,CLR,0.00,VWS V14.01,2013-12-27 06:45:00,
2013-12-27 00:50:00,33.5,27.1,30.22,SSW,200,3.0,4.0,77,0.00,,CLR,0.00,VWS V14.01,2013-12-27 06:50:00,
2013-12-27 00:55:00,33.9,27.1,30.22,SSW,193,0.0,4.0,76,0.00,,CLR,0.00,VWS V14.01,2013-12-27 06:55:00,
2013-12-27 01:00:00,34.2,27.1,30.22,SSW,196,0.0,3.0,75,0.00,,CLR,0.00,VWS V14.01,2013-12-27 07:00:00,
2013-12-27 01:05:00,34.2,27.1,30.21,SSW,196,0.0,3.0,75,0.00,,CLR,0.00,VWS V14.01,2013-12-27 07:05:00,
2013-12-27 01:10:00,33.8,26.7,30.21,SSW,196,0.0,3.0,75,0.00,,CLR,0.00,VWS V14.01,2013-12-27 07:10:00,
2013-12-27 01:15:00,33.4,26.3,30.21,SSW,196,0.0,3.0,75,0.00,,CLR,0.00,VWS V14.01,2013-12-27 07:15:00,
2013-12-27 01:20:00,32.9,26.2,30.21,SSW,196,0.0,3.0,76,0.00,,CLR,0.00,VWS V14.01,2013-12-27 07:20:00,
2013-12-27 01:26:00,32.3,25.9,30.21,SSW,196,0.0,3.0,77,0.00,,CLR,0.00,VWS V14.01,2013-12-27 07:26:00,
2013-12-27 01:30:00,32.0,25.6,30.21,SSW,196,0.0,3.0,77,0.00,,CLR,0.00,VWS V14.01,2013-12-27 07:30:00,
2013-12-27 01:31:00,31.8,25.7,30.22,SSW,196,0.0,0.0,78,0.00,,CLR,0.00,VWS V14.01,2013-12-27 07:31:00,
2013-12-27 01:36:00,31.4,25.6,30.22,SSW,194,0.0,2.0,79,0.00,,CLR,0.00,VWS V14.01,2013-12-27 07:36:00,
2013-12-27 01:41:00,31.1,25.7,30.22,SSW,194,0.0,2.0,80,0.00,,CLR,0.00,VWS V14.01,2013-12-27 07:41:00,
2013-12-27 01:46:00,30.8,25.4,30.22,SSW,194,0.0,2.0,80,0.00,,CLR,0.00,VWS V14.01,2013-12-27 07:46:00,
2013-12-27 01:51:00,30.5,25.4,30.22,SSW,194,0.0,2.0,81,0.00,,CLR,0.00,VWS V14.01,2013-12-27 07:51:00,
2013-12-27 01:56:00,30.3,25.2,30.22,SSW,194,0.0,2.0,81,0.00,,CLR,0.00,VWS V14.01,2013-12-27 07:56:00,
2013-12-27 02:00:00,30.1,25.0,30.22,SSW,194,0.0,2.0,81,0.00,,CLR,0.00,VWS V14.01,2013-12-27 08:00:00,
2013-12-27 02:01:00,30.0,24.9,30.22,SSW,194,0.0,1.0,81,0.00,,CLR,0.00,VWS V14.01,2013-12-27 08:01:00,
2013-12-27 02:06:00,29.8,25.3,30.22,SSW,194,0.0,1.0,83,0.00,,CLR,0.00,VWS V14.01,2013-12-27 08:06:00,
2013-12-27 02:11:00,29.7,25.2,30.22,SSW,194,0.0,1.0,83,0.00,,CLR,0.00,VWS V14.01,2013-12-27 08:11:00,
2013-12-27 02:17:00,29.7,25.5,30.22,SSW,194,0.0,1.0,84,0.00,,CLR,0.00,VWS V14.01,2013-12-27 08:17:00,
2013-12-27 02:22:00,29.8,25.6,30.22,SSW,194,0.0,1.0,84,0.00,,CLR,0.00,VWS V14.01,2013-12-27 08:22:00,
2013-12-27 02:27:00,29.9,25.7,30.22,SSW,194,0.0,1.0,84,0.00,,CLR,0.00,VWS V14.01,2013-12-27 08:27:00,
2013-12-27 02:30:00,30.0,25.8,30.22,SSW,203,0.0,3.0,84,0.00,,CLR,0.00,VWS V14.01,2013-12-27 08:30:00,
2013-12-27 02:32:00,30.2,26.0,30.22,SW,225,0.0,2.0,84,0.00,,CLR,0.00,VWS V14.01,2013-12-27 08:32:00,
2013-12-27 02:37:00,30.5,26.2,30.22,SW,231,5.0,6.0,84,0.00,,CLR,0.00,VWS V14.01,2013-12-27 08:37:00,
2013-12-27 02:42:00,30.7,26.5,30.22,SW,217,2.0,6.0,84,0.00,,CLR,0.00,VWS V14.01,2013-12-27 08:42:00,
2013-12-27 02:47:00,31.0,27.0,30.22,SSW,211,0.0,6.0,85,0.00,,CLR,0.00,VWS V14.01,2013-12-27 08:47:00,
2013-12-27 02:52:00,31.3,27.0,30.22,SSW,213,0.0,6.0,84,0.00,,CLR,0.00,VWS V14.01,2013-12-27 08:52:00,
2013-12-27 02:57:00,31.4,26.8,30.22,SSW,206,0.0,6.0,83,0.00,,CLR,0.00,VWS V14.01,2013-12-27 08:57:00,
2013-12-27 03:00:00,31.4,26.8,30.22,SSW,206,0.0,6.0,83,0.00,,CLR,0.00,VWS V14.01,2013-12-27 09:00:00,
2013-12-27 03:02:00,31.4,26.5,30.22,SSW,206,0.0,0.0,82,0.00,,CLR,0.00,VWS V14.01,2013-12-27 09:02:00,
2013-12-27 03:08:00,31.4,26.5,30.22,SSW,206,0.0,0.0,82,0.00,,CLR,0.00,VWS V14.01,2013-12-27 09:08:00,
2013-12-27 03:13:00,31.4,26.8,30.22,SSW,206,0.0,0.0,83,0.00,,CLR,0.00,VWS V14.01,2013-12-27 09:13:00,
2013-12-27 03:18:00,31.4,26.8,30.22,SW,227,1.0,1.0,83,0.00,,CLR,0.00,VWS V14.01,2013-12-27 09:18:00,
2013-12-27 03:23:00,31.7,27.1,30.22,SW,227,0.0,1.0,83,0.00,,CLR,0.00,VWS V14.01,2013-12-27 09:23:00,
2013-12-27 03:28:00,32.1,27.2,30.22,SW,227,0.0,1.0,82,0.00,,CLR,0.00,VWS V14.01,2013-12-27 09:28:00,
2013-12-27 03:30:00,32.2,27.3,30.22,SW,227,0.0,1.0,82,0.00,,CLR,0.00,VWS V14.01,2013-12-27 09:30:00,
2013-12-27 03:33:00,32.5,27.3,30.22,SW,227,0.0,0.0,81,0.00,,CLR,0.00,VWS V14.01,2013-12-27 09:33:00,
2013-12-27 03:38:00,32.6,27.4,30.22,SW,227,0.0,0.0,81,0.00,,CLR,0.00,VWS V14.01,2013-12-27 09:38:00,
2013-12-27 03:43:00,32.5,27.3,30.22,SW,227,0.0,0.0,81,0.00,,CLR,0.00,VWS V14.01,2013-12-27 09:43:00,
2013-12-27 03:48:00,32.4,27.2,30.21,SW,227,0.0,0.0,81,0.00,,CLR,0.00,VWS V14.01,2013-12-27 09:48:00,
2013-12-27 03:53:00,32.4,27.2,30.21,SW,227,0.0,0.0,81,0.00,,CLR,0.00,VWS V14.01,2013-12-27 09:53:00,
2013-12-27 03:58:00,32.3,27.1,30.21,SW,227,0.0,0.0,81,0.00,,CLR,0.00,VWS V14.01,2013-12-27 09:58:00,
2013-12-27 04:00:00,32.3,27.1,30.21,SW,227,0.0,0.0,81,0.00,,CLR,0.00,VWS V15.00,2013-12-27 10:00:00,
2013-12-27 04:03:00,31.9,26.7,30.21,SW,227,0.0,0.0,81,0.00,,CLR,0.00,VWS V14.01,2013-12-27 10:03:00,
2013-12-27 04:09:00,31.5,26.4,30.22,SW,227,0.0,0.0,81,0.00,,CLR,0.00,VWS V14.01,2013-12-27 10:09:00,
2013-12-27 04:14:00,31.2,26.4,30.22,SW,227,0.0,0.0,82,0.00,,CLR,0.00,VWS V14.01,2013-12-27 10:14:00,
2013-12-27 04:19:00,30.8,26.3,30.22,SW,227,0.0,0.0,83,0.00,,CLR,0.00,VWS V14.01,2013-12-27 10:19:00,
2013-12-27 04:24:00,30.6,26.1,30.22,SW,227,0.0,0.0,83,0.00,,CLR,0.00,VWS V14.01,2013-12-27 10:24:00,
2013-12-27 04:29:00,30.2,25.7,30.22,SW,227,0.0,0.0,83,0.00,,CLR,0.00,VWS V14.01,2013-12-27 10:29:00,
2013-12-27 04:30:00,30.3,25.8,30.22,SW,227,0.0,0.0,83,0.00,,CLR,0.00,VWS V14.01,2013-12-27 10:30:00,
2013-12-27 04:34:00,29.9,25.4,30.22,SW,227,0.0,0.0,83,0.00,,CLR,0.00,VWS V14.01,2013-12-27 10:34:00,
2013-12-27 04:39:00,29.6,25.4,30.22,SW,227,0.0,0.0,84,0.00,,CLR,0.00,VWS V14.01,2013-12-27 10:39:00,
2013-12-27 04:44:00,29.3,25.1,30.22,SW,227,0.0,0.0,84,0.00,,CLR,0.00,VWS V14.01,2013-12-27 10:44:00,
2013-12-27 04:49:00,29.1,25.2,30.22,SW,227,0.0,0.0,85,0.00,,CLR,0.00,VWS V14.01,2013-12-27 10:49:00,
2013-12-27 04:54:00,28.9,25.2,30.22,SW,227,0.0,0.0,86,0.00,,CLR,0.00,VWS V14.01,2013-12-27 10:54:00,
2013-12-27 05:00:00,28.7,25.0,30.22,SW,227,0.0,0.0,86,0.00,,CLR,0.00,VWS V14.01,2013-12-27 11:00:00,
2013-12-27 05:05:00,28.8,25.4,30.22,SW,227,0.0,0.0,87,0.00,,CLR,0.00,VWS V14.01,2013-12-27 11:05:00,
2013-12-27 05:10:00,28.8,25.4,30.22,SW,227,0.0,0.0,87,0.00,,CLR,0.00,VWS V14.01,2013-12-27 11:10:00,
2013-12-27 05:15:00,28.7,25.0,30.22,SW,227,0.0,0.0,86,0.00,,CLR,0.00,VWS V14.01,2013-12-27 11:15:00,
2013-12-27 05:20:00,28.6,25.0,30.22,SW,227,0.0,0.0,86,0.00,,CLR,0.00,VWS V14.01,2013-12-27 11:20:00,
2013-12-27 05:25:00,28.4,25.0,30.22,SW,215,0.0,1.0,87,0.00,,CLR,0.00,VWS V14.01,2013-12-27 11:25:00,
2013-12-27 05:30:00,28.3,24.9,30.22,SW,215,0.0,0.0,87,0.00,,CLR,0.00,VWS V14.01,2013-12-27 11:30:00,
2013-12-27 05:35:00,28.2,24.8,30.22,SW,215,0.0,0.0,87,0.00,,CLR,0.00,VWS V14.01,2013-12-27 11:35:00,
2013-12-27 05:40:00,28.1,24.7,30.22,SW,215,0.0,0.0,87,0.00,,CLR,0.00,VWS V14.01,2013-12-27 11:40:00,
2013-12-27 05:45:00,27.9,24.5,30.22,SW,215,0.0,0.0,87,0.00,,CLR,0.00,VWS V14.01,2013-12-27 11:45:00,
2013-12-27 05:50:00,27.8,24.4,30.22,SW,215,0.0,0.0,87,0.00,,CLR,0.00,VWS V14.01,2013-12-27 11:50:00,
2013-12-27 05:55:00,27.7,24.6,30.22,SW,215,0.0,0.0,88,0.00,,CLR,0.00,VWS V14.01,2013-12-27 11:55:00,
2013-12-27 06:00:00,27.6,24.5,30.22,SW,215,0.0,0.0,88,0.00,,CLR,0.00,VWS V14.01,2013-12-27 12:00:00,
2013-12-27 06:06:00,27.5,24.7,30.22,SW,215,0.0,0.0,89,0.00,,CLR,0.00,VWS V14.01,2013-12-27 12:06:00,
2013-12-27 06:11:00,27.5,24.7,30.22,SW,215,0.0,0.0,89,0.00,,CLR,0.00,VWS V14.01,2013-12-27 12:11:00,
2013-12-27 06:16:00,27.4,24.6,30.23,SW,215,0.0,0.0,89,0.00,,CLR,0.00,VWS V14.01,2013-12-27 12:16:00,
2013-12-27 06:21:00,27.4,24.6,30.23,SW,215,0.0,0.0,89,0.00,,CLR,0.00,VWS V14.01,2013-12-27 12:21:00,
2013-12-27 06:26:00,27.6,25.1,30.23,SW,215,0.0,0.0,90,0.00,,CLR,0.00,VWS V14.01,2013-12-27 12:26:00,
2013-12-27 06:30:00,27.9,25.4,30.23,SW,215,0.0,0.0,90,0.00,,CLR,0.00,VWS V14.01,2013-12-27 12:30:00,
2013-12-27 06:31:00,28.1,25.5,30.23,SW,215,0.0,0.0,90,0.00,,CLR,0.00,VWS V14.01,2013-12-27 12:31:00,
2013-12-27 06:36:00,28.2,25.6,30.23,SW,215,0.0,0.0,90,0.00,,CLR,0.00,VWS V14.01,2013-12-27 12:36:00,
2013-12-27 06:41:00,28.2,25.4,30.23,SW,215,0.0,0.0,89,0.00,,CLR,0.00,VWS V14.01,2013-12-27 12:41:00,
2013-12-27 06:46:00,28.1,25.0,30.23,SW,215,0.0,0.0,88,0.00,,CLR,0.00,VWS V14.01,2013-12-27 12:46:00,
2013-12-27 06:51:00,27.9,24.8,30.23,SW,215,0.0,0.0,88,0.00,,CLR,0.00,VWS V14.01,2013-12-27 12:51:00,
2013-12-27 06:56:00,27.8,24.7,30.23,SW,215,0.0,0.0,88,0.00,,CLR,0.00,VWS V14.01,2013-12-27 12:56:00,
2013-12-27 07:00:00,27.7,24.6,30.23,SW,215,0.0,0.0,88,0.00,,CLR,0.00,VWS V14.01,2013-12-27 13:00:00,
2013-12-27 07:01:00,27.6,24.5,30.23,SW,215,0.0,0.0,88,0.00,,CLR,0.00,VWS V14.01,2013-12-27 13:01:00,
2013-12-27 07:07:00,27.5,24.7,30.23,SW,215,0.0,0.0,89,0.00,,CLR,0.00,VWS V14.01,2013-12-27 13:07:00,
2013-12-27 07:12:00,27.3,24.2,30.24,SW,215,0.0,0.0,88,0.00,,CLR,0.00,VWS V14.01,2013-12-27 13:12:00,
2013-12-27 07:17:00,27.1,24.3,30.24,SW,215,0.0,0.0,89,0.00,,CLR,0.00,VWS V14.01,2013-12-27 13:17:00,
2013-12-27 07:22:00,27.0,24.2,30.24,SW,215,0.0,0.0,89,0.00,,CLR,0.00,VWS V14.01,2013-12-27 13:22:00,
2013-12-27 07:27:00,26.8,24.0,30.23,SW,215,0.0,0.0,89,0.00,,CLR,0.00,VWS V14.01,2013-12-27 13:27:00,
2013-12-27 07:30:00,26.7,23.9,30.24,SW,215,0.0,0.0,89,0.00,,CLR,0.00,VWS V14.01,2013-12-27 13:30:00,
2013-12-27 07:32:00,26.7,24.2,30.24,SW,215,0.0,0.0,90,0.00,,CLR,0.00,VWS V14.01,2013-12-27 13:32:00,
2013-12-27 07:37:00,26.6,24.1,30.24,SW,215,0.0,0.0,90,0.00,,CLR,0.00,VWS V14.01,2013-12-27 13:37:00,
2013-12-27 07:42:00,26.6,24.1,30.24,SW,215,0.0,0.0,90,0.00,,CLR,0.00,VWS V14.01,2013-12-27 13:42:00,
2013-12-27 07:47:00,26.5,24.0,30.24,SW,215,0.0,0.0,90,0.00,,CLR,0.00,VWS V14.01,2013-12-27 13:47:00,
2013-12-27 07:52:00,26.6,24.3,30.24,SW,215,0.0,0.0,91,0.00,,CLR,0.00,VWS V14.01,2013-12-27 13:52:00,
2013-12-27 07:57:00,26.6,24.3,30.24,SW,215,0.0,0.0,91,0.00,,CLR,0.00,VWS V14.01,2013-12-27 13:57:00,
2013-12-27 08:00:00,26.7,24.4,30.24,SW,215,0.0,0.0,91,0.00,,CLR,0.00,VWS V14.01,2013-12-27 14:00:00,
2013-12-27 08:02:00,26.9,24.9,30.24,SW,215,0.0,0.0,92,0.00,,CLR,0.00,VWS V14.01,2013-12-27 14:02:00,
2013-12-27 08:07:00,27.2,25.2,30.24,SW,215,0.0,0.0,92,0.00,,CLR,0.00,VWS V14.01,2013-12-27 14:07:00,
2013-12-27 08:13:00,27.4,25.4,30.24,SW,215,0.0,0.0,92,0.00,,CLR,0.00,VWS V14.01,2013-12-27 14:13:00,
2013-12-27 08:18:00,27.6,25.6,30.25,SW,215,0.0,0.0,92,0.00,,CLR,0.00,VWS V14.01,2013-12-27 14:18:00,
2013-12-27 08:23:00,28.0,26.0,30.25,SW,215,0.0,0.0,92,0.00,,CLR,0.00,VWS V14.01,2013-12-27 14:23:00,
2013-12-27 08:28:00,28.5,26.5,30.25,SW,215,0.0,0.0,92,0.00,,CLR,0.00,VWS V14.01,2013-12-27 14:28:00,
2013-12-27 08:30:00,28.6,26.6,30.25,SW,215,0.0,0.0,92,0.00,,CLR,0.00,VWS V14.01,2013-12-27 14:30:00,
2013-12-27 08:33:00,29.5,27.5,30.25,SW,215,0.0,0.0,92,0.00,,CLR,0.00,VWS V14.01,2013-12-27 14:33:00,
2013-12-27 08:38:00,30.7,28.4,30.25,SW,215,0.0,0.0,91,0.00,,CLR,0.00,VWS V14.01,2013-12-27 14:38:00,
2013-12-27 08:43:00,31.4,28.8,30.25,SW,215,0.0,0.0,90,0.00,,CLR,0.00,VWS V14.01,2013-12-27 14:43:00,
2013-12-27 08:48:00,32.3,29.4,30.25,SW,215,0.0,0.0,89,0.00,,CLR,0.00,VWS V14.01,2013-12-27 14:48:00,
2013-12-27 08:53:00,33.1,29.4,30.26,SW,215,0.0,0.0,86,0.00,,CLR,0.00,VWS V14.01,2013-12-27 14:53:00,
2013-12-27 08:58:00,33.9,29.9,30.26,SW,215,0.0,0.0,85,0.00,,CLR,0.00,VWS V14.01,2013-12-27 14:58:00,
2013-12-27 09:00:00,34.0,30.0,30.26,SW,215,0.0,0.0,85,0.00,,CLR,0.00,VWS V14.01,2013-12-27 15:00:00,
2013-12-27 09:03:00,34.7,30.1,30.26,SW,215,0.0,0.0,83,0.00,,CLR,0.00,VWS V14.01,2013-12-27 15:03:00,
2013-12-27 09:09:00,35.6,30.7,30.26,SSE,165,0.0,1.0,82,0.00,,CLR,0.00,VWS V14.01,2013-12-27 15:09:00,
2013-12-27 09:14:00,36.2,30.9,30.26,SE,142,0.0,1.0,81,0.00,,CLR,0.00,VWS V14.01,2013-12-27 15:14:00,
2013-12-27 09:19:00,36.9,31.3,30.27,SE,142,0.0,1.0,80,0.00,,CLR,0.00,VWS V14.01,2013-12-27 15:19:00,
2013-12-27 09:24:00,37.5,31.6,30.27,SE,142,0.0,1.0,79,0.00,,CLR,0.00,VWS V14.01,2013-12-27 15:24:00,
2013-12-27 09:29:00,38.0,32.1,30.27,SE,142,0.0,0.0,79,0.00,,CLR,0.00,VWS V14.01,2013-12-27 15:29:00,
2013-12-27 09:30:00,38.0,32.1,30.27,SE,142,0.0,1.0,79,0.00,,CLR,0.00,VWS V14.01,2013-12-27 15:30:00,
2013-12-27 09:34:00,38.7,32.1,30.27,SE,142,0.0,1.0,77,0.00,,CLR,0.00,VWS V14.01,2013-12-27 15:34:00,
2013-12-27 09:39:00,39.3,32.7,30.27,SE,142,0.0,1.0,77,0.00,,CLR,0.00,VWS V14.01,2013-12-27 15:39:00,
2013-12-27 09:44:00,40.0,33.1,30.28,SE,142,0.0,1.0,76,0.00,,CLR,0.00,VWS V14.01,2013-12-27 15:44:00,
2013-12-27 09:49:00,40.9,33.3,30.28,SE,145,0.0,1.0,74,0.00,,CLR,0.00,VWS V14.01,2013-12-27 15:49:00,
2013-12-27 09:54:00,41.7,33.7,30.28,SE,145,0.0,1.0,73,0.00,,CLR,0.00,VWS V14.01,2013-12-27 15:54:00,
2013-12-27 09:59:00,42.3,33.6,30.28,SSE,149,0.0,0.0,71,0.00,,CLR,0.00,VWS V14.01,2013-12-27 15:59:00,
2013-12-27 10:00:00,42.2,33.5,30.28,SSE,149,0.0,1.0,71,0.00,,CLR,0.00,VWS V14.01,2013-12-27 16:00:00,
2013-12-27 10:05:00,42.9,34.2,30.28,SSE,149,0.0,0.0,71,0.00,,CLR,0.00,VWS V14.01,2013-12-27 16:05:00,
2013-12-27 10:10:00,43.4,33.9,30.28,SSE,149,0.0,1.0,69,0.00,,CLR,0.00,VWS V14.01,2013-12-27 16:10:00,
2013-12-27 10:15:00,43.9,34.0,30.28,SSE,149,0.0,1.0,68,0.00,,CLR,0.00,VWS V14.01,2013-12-27 16:15:00,
2013-12-27 10:20:00,44.5,34.6,30.28,SSE,149,0.0,1.0,68,0.00,,CLR,0.00,VWS V14.01,2013-12-27 16:20:00,
2013-12-27 10:25:00,45.0,32.8,30.28,WNW,292,0.0,2.0,62,0.00,,CLR,0.00,VWS V14.01,2013-12-27 16:25:00,
2013-12-27 10:30:00,45.6,32.1,30.28,WNW,287,0.0,1.0,59,0.00,,CLR,0.00,VWS V14.01,2013-12-27 16:30:00,
2013-12-27 10:35:00,46.3,33.6,30.28,West,279,0.0,2.0,61,0.00,,CLR,0.00,VWS V14.01,2013-12-27 16:35:00,
2013-12-27 10:40:00,47.0,34.7,30.28,West,278,1.0,2.0,62,0.00,,CLR,0.00,VWS V14.01,2013-12-27 16:40:00,
2013-12-27 10:45:00,47.6,34.4,30.27,SSW,193,0.0,2.0,60,0.00,,CLR,0.00,VWS V14.01,2013-12-27 16:45:00,
2013-12-27 10:50:00,47.6,34.4,30.27,South,184,0.0,3.0,60,0.00,,CLR,0.00,VWS V14.01,2013-12-27 16:50:00,
2013-12-27 10:55:00,47.8,34.6,30.27,SSE,157,0.0,3.0,60,0.00,,CLR,0.00,VWS V14.01,2013-12-27 16:55:00,
2013-12-27 11:00:00,48.1,32.7,30.27,WSW,247,0.0,3.0,55,0.00,,CLR,0.00,VWS V14.01,2013-12-27 17:00:00,
2013-12-27 11:01:00,48.3,34.2,30.26,South,176,1.0,1.0,58,0.00,,CLR,0.00,VWS V14.01,2013-12-27 17:01:00,
2013-12-27 11:06:00,48.7,34.6,30.26,SSE,161,2.0,3.0,58,0.00,,CLR,0.00,VWS V14.01,2013-12-27 17:06:00,
2013-12-27 11:11:00,49.1,33.7,30.26,SW,223,0.0,4.0,55,0.00,,CLR,0.00,VWS V14.01,2013-12-27 17:11:00,
2013-12-27 11:16:00,49.3,33.4,30.26,SSW,192,0.0,4.0,54,0.00,,CLR,0.00,VWS V14.01,2013-12-27 17:16:00,
2013-12-27 11:21:00,49.5,33.6,30.25,South,177,0.0,4.0,54,0.00,,CLR,0.00,VWS V14.01,2013-12-27 17:21:00,
2013-12-27 11:26:00,50.0,33.6,30.25,SSW,200,0.0,4.0,53,0.00,,CLR,0.00,VWS V14.01,2013-12-27 17:26:00,
2013-12-27 11:30:00,50.2,33.3,30.25,SW,214,2.0,4.0,52,0.00,,CLR,0.00,VWS V14.01,2013-12-27 17:30:00,
2013-12-27 11:31:00,50.3,33.4,30.25,South,181,0.0,6.0,52,0.00,,CLR,0.00,VWS V14.01,2013-12-27 17:31:00,
2013-12-27 11:36:00,50.4,33.0,30.25,SW,229,0.0,6.0,51,0.00,,CLR,0.00,VWS V14.01,2013-12-27 17:36:00,
2013-12-27 11:42:00,50.6,33.6,30.25,West,265,0.0,6.0,52,0.00,,CLR,0.00,VWS V14.01,2013-12-27 17:42:00,
2013-12-27 11:47:00,51.1,33.6,30.24,WSW,251,2.0,6.0,51,0.00,,CLR,0.00,VWS V14.01,2013-12-27 17:47:00,
2013-12-27 11:52:00,51.4,32.9,30.24,SW,234,1.0,6.0,49,0.00,,CLR,0.00,VWS V14.01,2013-12-27 17:52:00,
2013-12-27 11:57:00,51.8,32.8,30.23,SW,235,0.0,6.0,48,0.00,,CLR,0.00,VWS V14.01,2013-12-27 17:57:00,
2013-12-27 12:00:00,51.8,32.8,30.23,SW,236,0.0,6.0,48,0.00,,CLR,0.00,VWS V14.01,2013-12-27 18:00:00,
2013-12-27 12:02:00,51.9,32.8,30.23,WSW,243,0.0,3.0,48,0.00,,CLR,0.00,VWS V14.01,2013-12-27 18:02:00,
2013-12-27 12:07:00,51.9,32.8,30.23,West,278,1.0,3.0,48,0.00,,CLR,0.00,VWS V14.01,2013-12-27 18:07:00,
2013-12-27 12:12:00,52.1,33.0,30.23,WNW,297,0.0,3.0,48,0.00,,CLR,0.00,VWS V14.01,2013-12-27 18:12:00,
2013-12-27 12:17:00,52.5,33.4,30.23,West,278,0.0,3.0,48,0.00,,CLR,0.00,VWS V14.01,2013-12-27 18:17:00,
2013-12-27 12:22:00,52.8,33.2,30.22,West,275,2.0,4.0,47,0.00,,CLR,0.00,VWS V14.01,2013-12-27 18:22:00,
2013-12-27 12:27:00,52.9,32.7,30.22,West,263,2.0,4.0,46,0.00,,CLR,0.00,VWS V14.01,2013-12-27 18:27:00,
2013-12-27 12:30:00,52.9,32.7,30.22,West,265,0.0,4.0,46,0.00,,CLR,0.00,VWS V14.01,2013-12-27 18:30:00,
2013-12-27 12:32:00,53.0,33.3,30.22,West,261,1.0,4.0,47,0.00,,CLR,0.00,VWS V14.01,2013-12-27 18:32:00,
2013-12-27 12:38:00,53.1,32.9,30.21,NW,315,2.0,4.0,46,0.00,,CLR,0.00,VWS V14.01,2013-12-27 18:38:00,
2013-12-27 12:43:00,53.3,33.1,30.22,West,279,0.0,4.0,46,0.00,,CLR,0.00,VWS V14.01,2013-12-27 18:43:00,
2013-12-27 12:48:00,53.5,32.7,30.21,ESE,114,0.0,4.0,45,0.00,,CLR,0.00,VWS V14.01,2013-12-27 18:48:00,
2013-12-27 12:53:00,53.7,32.3,30.21,WSW,250,0.0,4.0,44,0.00,,CLR,0.00,VWS V14.01,2013-12-27 18:53:00,
2013-12-27 12:58:00,53.8,32.4,30.21,ENE,59,0.0,4.0,44,0.00,,CLR,0.00,VWS V14.01,2013-12-27 18:58:00,
2013-12-27 13:00:00,53.8,33.0,30.21,ENE,59,0.0,4.0,45,0.00,,CLR,0.00,VWS V14.01,2013-12-27 19:00:00,
2013-12-27 13:03:00,54.1,33.2,30.21,WNW,294,1.0,4.0,45,0.00,,CLR,0.00,VWS V14.01,2013-12-27 19:03:00,
2013-12-27 13:08:00,54.5,33.6,30.20,NW,322,0.0,4.0,45,0.00,,CLR,0.00,VWS V14.01,2013-12-27 19:08:00,
2013-12-27 13:13:00,55.0,32.9,30.20,SW,235,0.0,4.0,43,0.00,,CLR,0.00,VWS V14.01,2013-12-27 19:13:00,
2013-12-27 13:18:00,55.4,32.7,30.20,SSE,157,0.0,4.0,42,0.00,,CLR,0.00,VWS V14.01,2013-12-27 19:18:00,
2013-12-27 13:23:00,55.5,32.2,30.19,SSW,197,3.0,5.0,41,0.00,,CLR,0.00,VWS V14.01,2013-12-27 19:23:00,
2013-12-27 13:29:00,55.4,32.7,30.19,SSW,207,4.0,5.0,42,0.00,,CLR,0.00,VWS V14.01,2013-12-27 19:29:00,
2013-12-27 13:30:00,55.4,32.7,30.19,SSW,209,3.0,5.0,42,0.00,,CLR,0.00,VWS V14.01,2013-12-27 19:30:00,
2013-12-27 13:34:00,55.3,32.6,30.19,South,173,0.0,3.0,42,0.00,,CLR,0.00,VWS V14.01,2013-12-27 19:34:00,
2013-12-27 13:39:00,55.5,32.2,30.19,ESE,119,0.0,3.0,41,0.00,,CLR,0.00,VWS V14.01,2013-12-27 19:39:00,
2013-12-27 13:44:00,55.7,32.4,30.19,SW,225,1.0,4.0,41,0.00,,CLR,0.00,VWS V14.01,2013-12-27 19:44:00,
2013-12-27 13:49:00,55.7,31.8,30.18,WSW,246,0.0,4.0,40,0.00,,CLR,0.00,VWS V14.01,2013-12-27 19:49:00,
2013-12-27 13:54:00,55.9,32.0,30.19,South,186,2.0,4.0,40,0.00,,CLR,0.00,VWS V14.01,2013-12-27 19:54:00,
2013-12-27 13:59:00,56.0,31.4,30.18,SW,215,0.0,2.0,39,0.00,,CLR,0.00,VWS V14.01,2013-12-27 19:59:00,
2013-12-27 14:00:00,56.0,31.4,30.18,SW,215,1.0,4.0,39,0.00,,CLR,0.00,VWS V14.01,2013-12-27 20:00:00,
2013-12-27 14:04:00,56.1,31.5,30.18,SSE,155,2.0,4.0,39,0.00,,CLR,0.00,VWS V14.01,2013-12-27 20:04:00,
2013-12-27 14:09:00,56.0,30.8,30.18,South,185,2.0,4.0,38,0.00,,CLR,0.00,VWS V14.01,2013-12-27 20:09:00,
2013-12-27 14:14:00,55.9,31.3,30.18,South,180,0.0,4.0,39,0.00,,CLR,0.00,VWS V14.01,2013-12-27 20:14:00,
2013-12-27 14:20:00,56.0,31.4,30.18,South,186,0.0,4.0,39,0.00,,CLR,0.00,VWS V14.01,2013-12-27 20:20:00,
2013-12-27 14:25:00,56.3,31.7,30.18,SSE,152,2.0,4.0,39,0.00,,CLR,0.00,VWS V14.01,2013-12-27 20:25:00,
2013-12-27 14:30:00,56.5,31.9,30.18,SSE,159,1.0,1.0,39,0.00,,CLR,0.00,VWS V14.01,2013-12-27 20:30:00,
2013-12-27 14:35:00,56.8,30.8,30.18,SSW,197,3.0,6.0,37,0.00,,CLR,0.00,VWS V14.01,2013-12-27 20:35:00,
2013-12-27 14:40:00,56.8,31.5,30.17,SE,142,3.0,6.0,38,0.00,,CLR,0.00,VWS V14.01,2013-12-27 20:40:00,
2013-12-27 14:45:00,56.6,30.6,30.17,South,182,1.0,7.0,37,0.00,,CLR,0.00,VWS V14.01,2013-12-27 20:45:00,
2013-12-27 14:50:00,56.4,30.5,30.17,South,173,0.0,7.0,37,0.00,,CLR,0.00,VWS V14.01,2013-12-27 20:50:00,
2013-12-27 14:55:00,56.5,30.6,30.17,SSE,164,1.0,7.0,37,0.00,,CLR,0.00,VWS V14.01,2013-12-27 20:55:00,
2013-12-27 15:00:00,56.5,29.9,30.17,ESE,121,2.0,3.0,36,0.00,,CLR,0.00,VWS V14.01,2013-12-27 21:00:00,
2013-12-27 15:05:00,56.5,31.2,30.17,SSW,211,1.0,3.0,38,0.00,,CLR,0.00,VWS V14.01,2013-12-27 21:05:00,
2013-12-27 15:11:00,56.5,29.9,30.17,SSW,198,2.0,4.0,36,0.00,,CLR,0.00,VWS V14.01,2013-12-27 21:11:00,
2013-12-27 15:16:00,56.5,29.9,30.17,SW,217,0.0,4.0,36,0.00,,CLR,0.00,VWS V14.01,2013-12-27 21:16:00,
2013-12-27 15:21:00,56.4,29.8,30.17,South,190,3.0,4.0,36,0.00,,CLR,0.00,VWS V14.01,2013-12-27 21:21:00,
2013-12-27 15:26:00,56.2,28.9,30.17,SSW,198,0.0,6.0,35,0.00,,CLR,0.00,VWS V14.01,2013-12-27 21:26:00,
2013-12-27 15:30:00,56.2,28.2,30.17,WSW,240,3.0,6.0,34,0.00,,CLR,0.00,VWS V14.01,2013-12-27 21:30:00,
2013-12-27 15:31:00,56.2,28.2,30.17,SSW,195,2.0,5.0,34,0.00,,CLR,0.00,VWS V14.01,2013-12-27 21:31:00,
2013-12-27 15:36:00,56.1,28.8,30.17,South,182,3.0,5.0,35,0.00,,CLR,0.00,VWS V14.01,2013-12-27 21:36:00,
2013-12-27 15:41:00,55.9,29.4,30.17,South,169,0.0,5.0,36,0.00,,CLR,0.00,VWS V14.01,2013-12-27 21:41:00,
2013-12-27 15:46:00,55.9,29.4,30.17,SSW,206,1.0,5.0,36,0.00,,CLR,0.00,VWS V14.01,2013-12-27 21:46:00,
2013-12-27 15:51:00,55.8,28.6,30.17,South,173,4.0,5.0,35,0.00,,CLR,0.00,VWS V14.01,2013-12-27 21:51:00,
2013-12-27 15:56:00,55.7,28.5,30.17,South,184,0.0,5.0,35,0.00,,CLR,0.00,VWS V14.01,2013-12-27 21:56:00,
2013-12-27 16:00:00,55.6,28.4,30.17,SSW,192,4.0,5.0,35,0.00,,CLR,0.00,VWS V14.01,2013-12-27 22:00:00,
2013-12-27 16:02:00,55.5,29.0,30.16,SSW,192,0.0,4.0,36,0.00,,CLR,0.00,VWS V14.01,2013-12-27 22:02:00,
2013-12-27 16:07:00,55.3,29.5,30.16,South,175,0.0,4.0,37,0.00,,CLR,0.00,VWS V14.01,2013-12-27 22:07:00,
2013-12-27 16:12:00,55.0,29.9,30.16,South,175,0.0,4.0,38,0.00,,CLR,0.00,VWS V14.01,2013-12-27 22:12:00,
2013-12-27 16:17:00,54.4,30.6,30.16,South,189,2.0,4.0,40,0.00,,CLR,0.00,VWS V14.01,2013-12-27 22:17:00,
2013-12-27 16:22:00,53.9,30.8,30.16,SSW,196,1.0,4.0,41,0.00,,CLR,0.00,VWS V14.01,2013-12-27 22:22:00,
2013-12-27 16:27:00,53.2,31.3,30.16,SSW,196,0.0,4.0,43,0.00,,CLR,0.00,VWS V14.01,2013-12-27 22:27:00,
2013-12-27 16:30:00,53.0,31.1,30.16,SSW,196,0.0,4.0,43,0.00,,CLR,0.00,VWS V14.01,2013-12-27 22:30:00,
2013-12-27 16:32:00,52.6,31.3,30.16,SSW,196,0.0,0.0,44,0.00,,CLR,0.00,VWS V14.01,2013-12-27 22:32:00,
2013-12-27 16:37:00,51.9,31.2,30.16,SSW,196,0.0,0.0,45,0.00,,CLR,0.00,VWS V14.01,2013-12-27 22:37:00,
2013-12-27 16:42:00,51.3,31.2,30.16,SSW,196,0.0,0.0,46,0.00,,CLR,0.00,VWS V14.01,2013-12-27 22:42:00,
2013-12-27 16:47:00,50.6,31.6,30.16,SSW,196,0.0,0.0,48,0.00,,CLR,0.00,VWS V14.01,2013-12-27 22:47:00,
2013-12-27 16:52:00,49.9,31.0,30.16,SSW,196,0.0,0.0,48,0.00,,CLR,0.00,VWS V14.01,2013-12-27 22:52:00,
2013-12-27 16:58:00,49.2,30.9,30.16,SSW,196,0.0,0.0,49,0.00,,CLR,0.00,VWS V14.01,2013-12-27 22:58:00,
2013-12-27 17:00:00,49.1,30.8,30.16,SSW,196,0.0,0.0,49,0.00,,CLR,0.00,VWS V14.01,2013-12-27 23:00:00,
2013-12-27 17:03:00,48.6,30.8,30.16,SSW,196,0.0,0.0,50,0.00,,CLR,0.00,VWS V14.01,2013-12-27 23:03:00,
2013-12-27 17:08:00,47.9,31.1,30.17,SSW,196,0.0,0.0,52,0.00,,CLR,0.00,VWS V14.01,2013-12-27 23:08:00,
2013-12-27 17:13:00,47.3,31.0,30.17,SSW,196,0.0,0.0,53,0.00,,CLR,0.00,VWS V14.01,2013-12-27 23:13:00,
2013-12-27 17:18:00,46.7,30.5,30.17,SSW,196,0.0,0.0,53,0.00,,CLR,0.00,VWS V14.01,2013-12-27 23:18:00,
2013-12-27 17:23:00,46.0,30.3,30.17,SSW,196,0.0,0.0,54,0.00,,CLR,0.00,VWS V14.01,2013-12-27 23:23:00,
2013-12-27 17:28:00,45.4,30.6,30.17,SSW,196,0.0,0.0,56,0.00,,CLR,0.00,VWS V14.01,2013-12-27 23:28:00,
2013-12-27 17:30:00,45.3,30.5,30.17,SSW,196,0.0,0.0,56,0.00,,CLR,0.00,VWS V14.01,2013-12-27 23:30:00,
2013-12-27 17:33:00,44.8,30.1,30.17,SSW,196,0.0,0.0,56,0.00,,CLR,0.00,VWS V14.01,2013-12-27 23:33:00,
2013-12-27 17:38:00,44.4,30.1,30.17,SSW,196,0.0,0.0,57,0.00,,CLR,0.00,VWS V14.01,2013-12-27 23:38:00,
2013-12-27 17:43:00,44.2,30.4,30.17,SSW,196,0.0,0.0,58,0.00,,CLR,0.00,VWS V14.01,2013-12-27 23:43:00,
2013-12-27 17:48:00,43.9,30.5,30.17,SSW,196,0.0,0.0,59,0.00,,CLR,0.00,VWS V14.01,2013-12-27 23:48:00,
2013-12-27 17:53:00,43.6,30.6,30.17,SSW,196,0.0,0.0,60,0.00,,CLR,0.00,VWS V14.01,2013-12-27 23:53:00,
2013-12-27 17:59:00,43.2,30.3,30.17,SSW,196,0.0,0.0,60,0.00,,CLR,0.00,VWS V14.01,2013-12-27 23:59:00,
2013-12-27 18:00:00,43.2,30.3,30.17,SSW,196,0.0,0.0,60,0.00,,CLR,0.00,VWS V14.01,2013-12-28 00:00:00,
2013-12-27 18:04:00,42.9,30.4,30.17,SSW,196,0.0,0.0,61,0.00,,CLR,0.00,VWS V14.01,2013-12-28 00:04:00,
2013-12-27 18:09:00,42.6,30.1,30.17,SSW,196,0.0,0.0,61,0.00,,CLR,0.00,VWS V14.01,2013-12-28 00:09:00,
2013-12-27 18:14:00,42.4,30.3,30.17,SSW,196,0.0,0.0,62,0.00,,CLR,0.00,VWS V14.01,2013-12-28 00:14:00,
2013-12-27 18:19:00,42.1,30.4,30.17,SSW,196,0.0,0.0,63,0.00,,CLR,0.00,VWS V14.01,2013-12-28 00:19:00,
2013-12-27 18:24:00,41.8,30.5,30.17,SSW,196,0.0,0.0,64,0.00,,CLR,0.00,VWS V14.01,2013-12-28 00:24:00,
2013-12-27 18:29:00,41.4,30.5,30.17,SSW,196,0.0,0.0,65,0.00,,CLR,0.00,VWS V14.01,2013-12-28 00:29:00,
2013-12-27 18:30:00,41.5,30.6,30.17,SSW,196,0.0,0.0,65,0.00,,CLR,0.00,VWS V14.01,2013-12-28 00:30:00,
2013-12-27 18:34:00,41.1,30.2,30.18,SSW,196,0.0,0.0,65,0.00,,CLR,0.00,VWS V14.01,2013-12-28 00:34:00,
2013-12-27 18:39:00,40.9,30.4,30.17,SSW,196,0.0,0.0,66,0.00,,CLR,0.00,VWS V14.01,2013-12-28 00:39:00,
2013-12-27 18:44:00,40.7,30.2,30.17,SSW,196,0.0,0.0,66,0.00,,CLR,0.00,VWS V14.01,2013-12-28 00:44:00,
2013-12-27 18:49:00,40.5,30.0,30.17,SSW,196,0.0,0.0,66,0.00,,CLR,0.00,VWS V14.01,2013-12-28 00:49:00,
2013-12-27 18:54:00,40.4,30.0,30.17,SSW,196,0.0,0.0,66,0.00,,CLR,0.00,VWS V14.01,2013-12-28 00:54:00,
2013-12-27 19:00:00,40.1,30.0,30.17,SSW,196,0.0,0.0,67,0.00,,CLR,0.00,VWS V14.01,2013-12-28 01:00:00,
2013-12-27 19:05:00,39.9,29.9,30.17,SSW,196,0.0,0.0,67,0.00,,CLR,0.00,VWS V14.01,2013-12-28 01:05:00,
2013-12-27 19:08:00,39.8,30.1,30.17,SSW,196,0.0,0.0,68,0.00,,CLR,0.00,VWS V14.01,2013-12-28 01:08:00,
2013-12-27 19:13:00,39.5,29.8,30.17,SSW,196,0.0,0.0,68,0.00,,CLR,0.00,VWS V14.01,2013-12-28 01:13:00,
2013-12-27 19:18:00,39.4,29.7,30.16,SSW,196,1.0,1.0,68,0.00,,CLR,0.00,VWS V14.01,2013-12-28 01:18:00,
2013-12-27 19:23:00,39.4,29.7,30.16,SSW,196,1.0,3.0,68,0.00,,CLR,0.00,VWS V14.01,2013-12-28 01:23:00,
2013-12-27 19:28:00,39.3,29.3,30.16,SSW,196,1.0,3.0,67,0.00,,CLR,0.00,VWS V14.01,2013-12-28 01:28:00,
2013-12-27 19:30:00,39.3,29.3,30.16,SSW,196,0.0,3.0,67,0.00,,CLR,0.00,VWS V14.01,2013-12-28 01:30:00,
2013-12-27 19:34:00,39.3,29.3,30.16,SSW,196,0.0,1.0,67,0.00,,CLR,0.00,VWS V14.01,2013-12-28 01:34:00,
2013-12-27 19:39:00,39.3,28.9,30.17,SSW,196,1.0,2.0,66,0.00,,CLR,0.00,VWS V14.01,2013-12-28 01:39:00,
2013-12-27 19:44:00,39.3,29.3,30.17,SSW,196,2.0,3.0,67,0.00,,CLR,0.00,VWS V14.01,2013-12-28 01:44:00,
2013-12-27 19:49:00,39.3,29.3,30.17,SSW,196,2.0,4.0,67,0.00,,CLR,0.00,VWS V14.01,2013-12-28 01:49:00,
2013-12-27 19:54:00,39.5,29.5,30.17,SSW,196,1.0,4.0,67,0.00,,CLR,0.00,VWS V14.01,2013-12-28 01:54:00,
2013-12-27 19:59:00,39.8,29.4,30.17,SSW,196,4.0,4.0,66,0.00,,CLR,0.00,VWS V14.01,2013-12-28 01:59:00,
2013-12-27 20:00:00,39.8,29.4,30.17,SSW,196,2.0,4.0,66,0.00,,CLR,0.00,VWS V14.01,2013-12-28 02:00:00,
2013-12-27 20:04:00,40.3,29.5,30.17,SSW,195,2.0,4.0,65,0.00,,CLR,0.00,VWS V14.01,2013-12-28 02:04:00,
2013-12-27 20:09:00,40.8,29.6,30.17,SSW,194,2.0,4.0,64,0.00,,CLR,0.00,VWS V14.01,2013-12-28 02:09:00,
2013-12-27 20:14:00,41.3,29.7,30.17,SSW,194,1.0,4.0,63,0.00,,CLR,0.00,VWS V14.01,2013-12-28 02:14:00,
2013-12-27 20:19:00,41.4,29.4,30.17,SSW,194,0.0,4.0,62,0.00,,CLR,0.00,VWS V14.01,2013-12-28 02:19:00,
2013-12-27 20:25:00,41.3,29.3,30.16,SSW,194,1.0,4.0,62,0.00,,CLR,0.00,VWS V14.01,2013-12-28 02:25:00,
2013-12-27 20:30:00,41.0,29.0,30.17,SSW,194,1.0,2.0,62,0.00,,CLR,0.00,VWS V14.01,2013-12-28 02:30:00,
2013-12-27 20:35:00,40.7,28.7,30.16,SSW,203,3.0,3.0,62,0.00,,CLR,0.00,VWS V14.01,2013-12-28 02:35:00,
2013-12-27 20:40:00,40.5,28.5,30.16,SSW,199,2.0,4.0,62,0.00,,CLR,0.00,VWS V14.01,2013-12-28 02:40:00,
2013-12-27 20:45:00,40.4,28.4,30.16,SSW,199,3.0,4.0,62,0.00,,CLR,0.00,VWS V14.01,2013-12-28 02:45:00,
2013-12-27 20:50:00,40.4,28.4,30.16,SSW,199,3.0,4.0,62,0.00,,CLR,0.00,VWS V14.01,2013-12-28 02:50:00,
2013-12-27 20:55:00,40.4,28.4,30.16,SSW,199,2.0,4.0,62,0.00,,CLR,0.00,VWS V14.01,2013-12-28 02:55:00,
2013-12-27 21:00:00,40.5,28.1,30.17,SSW,197,3.0,3.0,61,0.00,,CLR,0.00,VWS V14.01,2013-12-28 03:00:00,
2013-12-27 21:05:00,40.6,27.8,30.17,SSW,195,2.0,3.0,60,0.00,,CLR,0.00,VWS V14.01,2013-12-28 03:05:00,
2013-12-27 21:10:00,40.9,28.1,30.17,SSW,194,2.0,3.0,60,0.00,,CLR,0.00,VWS V14.01,2013-12-28 03:10:00,
2013-12-27 21:15:00,41.0,27.8,30.17,SSW,194,2.0,3.0,59,0.00,,CLR,0.00,VWS V14.01,2013-12-28 03:15:00,
2013-12-27 21:20:00,41.1,27.9,30.16,SSW,198,4.0,4.0,59,0.00,,CLR,0.00,VWS V14.01,2013-12-28 03:20:00,
2013-12-27 21:26:00,41.2,28.0,30.17,South,189,2.0,5.0,59,0.00,,CLR,0.00,VWS V14.01,2013-12-28 03:26:00,
2013-12-27 21:30:00,41.3,27.6,30.17,SSW,205,2.0,5.0,58,0.00,,CLR,0.00,VWS V14.01,2013-12-28 03:30:00,
2013-12-27 21:31:00,41.4,27.8,30.17,SSW,197,3.0,6.0,58,0.00,,CLR,0.00,VWS V14.01,2013-12-28 03:31:00,
2013-12-27 21:36:00,41.6,27.5,30.17,SSW,199,1.0,6.0,57,0.00,,CLR,0.00,VWS V14.01,2013-12-28 03:36:00,
2013-12-27 21:41:00,41.9,27.8,30.17,SSW,206,1.0,6.0,57,0.00,,CLR,0.00,VWS V14.01,2013-12-28 03:41:00,
2013-12-27 21:46:00,42.0,27.5,30.17,SW,216,1.0,6.0,56,0.00,,CLR,0.00,VWS V14.01,2013-12-28 03:46:00,
2013-12-27 21:51:00,42.1,27.5,30.17,SSW,206,1.0,6.0,56,0.00,,CLR,0.00,VWS V14.01,2013-12-28 03:51:00,
2013-12-27 21:56:00,42.2,27.6,30.17,SSW,200,2.0,6.0,56,0.00,,CLR,0.00,VWS V14.01,2013-12-28 03:56:00,
2013-12-27 22:00:00,42.3,27.7,30.17,SSW,207,2.0,6.0,56,0.00,,CLR,0.00,VWS V14.01,2013-12-28 04:00:00,
2013-12-27 22:01:00,42.4,27.8,30.17,SW,229,1.0,3.0,56,0.00,,CLR,0.00,VWS V14.01,2013-12-28 04:01:00,
2013-12-27 22:06:00,42.9,27.4,30.17,SSW,210,1.0,5.0,54,0.00,,CLR,0.00,VWS V14.01,2013-12-28 04:06:00,
2013-12-27 22:11:00,43.1,27.6,30.17,SW,224,2.0,5.0,54,0.00,,CLR,0.00,VWS V14.01,2013-12-28 04:11:00,
2013-12-27 22:16:00,43.3,27.3,30.16,SSW,201,3.0,7.0,53,0.00,,CLR,0.00,VWS V14.01,2013-12-28 04:16:00,
2013-12-27 22:22:00,43.7,27.2,30.17,South,189,2.0,7.0,52,0.00,,CLR,0.00,VWS V14.01,2013-12-28 04:22:00,
2013-12-27 22:27:00,43.7,27.2,30.16,SSW,205,1.0,7.0,52,0.00,,CLR,0.00,VWS V14.01,2013-12-28 04:27:00,
2013-12-27 22:30:00,43.7,27.7,30.16,SSW,205,1.0,7.0,53,0.00,,CLR,0.00,VWS V14.01,2013-12-28 04:30:00,
2013-12-27 22:32:00,43.5,27.5,30.16,SSW,200,1.0,8.0,53,0.00,,CLR,0.00,VWS V14.01,2013-12-28 04:32:00,
2013-12-27 22:37:00,43.2,27.2,30.16,SW,215,1.0,8.0,53,0.00,,CLR,0.00,VWS V14.01,2013-12-28 04:37:00,
2013-12-27 22:42:00,43.0,27.0,30.16,SSW,205,2.0,8.0,53,0.00,,CLR,0.00,VWS V14.01,2013-12-28 04:42:00,
2013-12-27 22:47:00,43.0,27.0,30.16,SSW,193,1.0,8.0,53,0.00,,CLR,0.00,VWS V14.01,2013-12-28 04:47:00,
2013-12-27 22:52:00,42.4,27.4,30.16,South,184,1.0,8.0,55,0.00,,CLR,0.00,VWS V14.01,2013-12-28 04:52:00,
2013-12-27 22:57:00,41.4,26.9,30.16,South,182,2.0,8.0,56,0.00,,CLR,0.00,VWS V14.01,2013-12-28 04:57:00,
2013-12-27 23:00:00,41.2,27.1,30.16,South,182,2.0,8.0,57,0.00,,CLR,0.00,VWS V14.01,2013-12-28 05:00:00,
2013-12-27 23:01:00,40.8,27.2,30.16,South,182,3.0,3.0,58,0.00,,CLR,0.00,VWS V14.01,2013-12-28 05:01:00,
2013-12-27 23:02:00,40.6,27.4,30.17,South,182,1.0,4.0,59,0.00,,CLR,0.00,VWS V14.01,2013-12-28 05:02:00,
2013-12-27 23:03:00,40.5,27.3,30.17,South,182,3.0,4.0,59,0.00,,CLR,0.00,VWS V14.01,2013-12-28 05:03:00,
2013-12-27 23:08:00,39.8,27.1,30.17,South,182,2.0,4.0,60,0.00,,CLR,0.00,VWS V14.01,2013-12-28 05:08:00,
2013-12-27 23:13:00,39.6,26.9,30.17,South,187,2.0,4.0,60,0.00,,CLR,0.00,VWS V14.01,2013-12-28 05:13:00,
2013-12-27 23:18:00,39.5,26.8,30.16,South,188,2.0,4.0,60,0.00,,CLR,0.00,VWS V14.01,2013-12-28 05:18:00,
2013-12-27 23:23:00,39.3,27.0,30.16,SSW,192,4.0,5.0,61,0.00,,CLR,0.00,VWS V14.01,2013-12-28 05:23:00,
2013-12-27 23:28:00,39.4,27.1,30.16,SSW,200,3.0,6.0,61,0.00,,CLR,0.00,VWS V14.01,2013-12-28 05:28:00,
2013-12-27 23:30:00,39.4,27.1,30.16,SSW,194,6.0,6.0,61,0.00,,CLR,0.00,VWS V14.01,2013-12-28 05:30:00,
2013-12-27 23:33:00,39.7,27.0,30.16,SSW,210,3.0,6.0,60,0.00,,CLR,0.00,VWS V14.01,2013-12-28 05:33:00,
2013-12-27 23:38:00,40.3,27.5,30.16,SSW,196,3.0,6.0,60,0.00,,CLR,0.00,VWS V14.01,2013-12-28 05:38:00,
2013-12-27 23:44:00,40.7,27.1,30.16,SSW,205,1.0,6.0,58,0.00,,CLR,0.00,VWS V14.01,2013-12-28 05:44:00,
2013-12-27 23:49:00,41.0,27.4,30.16,SSW,200,4.0,6.0,58,0.00,,CLR,0.00,VWS V14.01,2013-12-28 05:49:00,
2013-12-27 23:54:00,41.4,27.8,30.16,SSW,205,3.0,8.0,58,0.00,,CLR,0.00,VWS V14.01,2013-12-28 05:54:00,
2013-12-27 23:59:00,41.8,27.7,30.16,SW,227,1.0,8.0,57,0.00,,CLR,0.00,VWS V14.01,2013-12-28 05:59:00,